Location: Shenandoah County Park
(38.9356°N, 78.4524°W)
Time: 23:30:47
(UTC-04:00)

RS-44 - Visible Passes

Search period start: 28 March 2023 00:00
Search period end: 07 April 2023 00:00
Orbit: 1174 x 1511 km, 82.5° (Epoch: 28 March)

Date Brightness Start Highest point End Pass type
(mag) Time Alt. Az. Time Alt. Az. Time Alt. Az.
28 Mar ? 02:00:59 10° N 02:06:41 33° NE 02:06:41 33° NE visible
28 Mar ? 03:54:12 10° NNW 03:59:15 36° NW 03:59:15 36° NW visible
29 Mar ? 02:24:22 10° N 02:30:11 45° NNE 02:30:11 45° NNE visible
29 Mar ? 04:18:35 10° NNW 04:22:46 25° NW 04:22:46 25° NW visible
30 Mar ? 00:56:52 10° NNE 01:01:09 16° ENE 01:01:09 16° ENE visible
30 Mar ? 02:48:00 10° N 02:53:43 50° N 02:53:43 50° N visible
30 Mar ? 04:43:34 10° NW 04:46:18 16° WNW 04:46:18 16° WNW visible
31 Mar ? 01:19:23 10° NNE 01:24:41 25° NE 01:24:41 25° NE visible
31 Mar ? 03:11:52 10° NNW 03:17:16 44° NNW 03:17:16 44° NNW visible
01 Apr ? 01:42:31 10° N 01:48:14 36° NE 01:48:14 36° NE visible
01 Apr ? 03:36:00 10° NNW 03:40:49 33° NW 03:40:49 33° NW visible
02 Apr ? 00:16:55 10° NE 00:19:14 11° ENE 00:19:14 11° ENE visible
02 Apr ? 02:05:59 10° N 02:11:49 47° NNE 02:11:49 47° NNE visible
02 Apr ? 04:00:30 10° NNW 04:04:24 23° NW 04:04:24 23° NW visible
03 Apr ? 00:38:04 10° NNE 00:42:49 19° ENE 00:42:49 19° ENE visible
03 Apr ? 02:29:41 10° N 02:35:25 50° N 02:35:25 50° N visible
03 Apr ? 04:25:44 10° NW 04:28:00 14° WNW 04:28:00 14° WNW visible
04 Apr ? 01:00:50 10° NNE 01:06:25 28° NE 01:06:25 28° NE visible
04 Apr ? 02:53:38 10° NNW 02:59:01 42° NW 02:59:01 42° NW visible
05 Apr ? 01:24:05 10° N 01:30:02 40° NE 01:30:02 40° NE visible
05 Apr ? 03:17:51 10° NNW 03:22:38 30° NW 03:22:38 30° NW visible
05 Apr ? 23:57:25 10° NE 00:01:05 13° ENE 00:01:05 13° ENE visible
06 Apr ? 01:47:38 10° N 01:53:41 50° NNE 01:53:41 50° NNE visible
06 Apr ? 03:42:29 10° NNW 03:46:15 21° WNW 03:46:15 21° WNW visible
